Voltar ao catálogo

FENGYUN 1C DEB

AtivoPO
NORAD 37424·DEBRIS·🇨🇳 China

Lançado May 10, 1999 de Taiyuan Satellite Launch Center

Loading…

Próximas Passagens (próximas 24 horas)

TLE

AtualizadoSource: Space-Track

Época: Sep 11, 2026, 23:12 UTC

1 37424U 99025EGS 26254.96733840  .00001441  00000-0  56300-3 0  9991
2 37424  97.2086 337.6563 0212956 184.4608 175.4681 14.19033015724476

Acompanhe FENGYUN 1C DEB em tempo real com AllMySat

Download on the App Store